Regional Weather Roundup
Issued by NWS Wakefield, VA

Home | Current Version | Previous Version | Text Only | Print | Product List | Glossary On
Versions: 1 2 3 4 5 6 7 8 9 10 11 12 13 14 15 16 17 18 19 20 21 22 23 24 25 26 27 28 29 30 31 32 33 34 35 36 37 38 39 40 41 42 43 44 45 46 47 48 49 50
000
ASUS41 KAKQ 241615
RWRAKQ

REGIONAL WEATHER ROUNDUP
NATIONAL WEATHER SERVICE WAKEFIELD VA
1200 PM EDT SAT JUN 24 2017

Note: "fair" indicates few or no clouds below 12,000 feet with no
significant weather and/or obstructions to visibility. * = Denotes
station may not report precipitation (e.g., rain,snow,etc.),
thunder or fog.

VAZ042-051-052>054-056-241700-
NORTHERN VIRGINIA

CITY           SKY/WX    TMP DP  RH WIND       PRES   REMARKS
WASH NATIONAL  MOSUNNY   85  63  47 NW18G28   29.86R
DULLES         MOSUNNY   82  61  48 NW15G22   29.88R
FORT BELVOIR   SUNNY     85  60  42 W13       29.86R
QUANTICO       LGT RAIN  87  64  46 N12G22    29.87R
FREDERICKSBRG* PTSUNNY   84  66  54 W6        29.87R
STAFFORD*      SUNNY     85  62  46 W9        29.92R
WARRENTON      MOSUNNY   86  57  37 NW9G17    29.89R
CULPEPER*      PTSUNNY   83  67  57 N10       29.89R
MANASSAS*      SUNNY     83  60  45 W13       29.88R
LEESBURG*      PTSUNNY  N/A N/A N/A NW15G21   29.90R
WINCHESTER     MOSUNNY   77  59  53 W10G20    29.90S
FRONT ROYAL*   MOSUNNY   81  59  47 W9        29.91R
LURAY*         CLOUDY    79  59  50 W10G16    29.93R
$$

VAZ048-049-060>072-079>083-241700-
CENTRAL AND SOUTH CENTRAL VIRGINIA

CITY           SKY/WX    TMP DP  RH WIND       PRES   REMARKS
RICHMOND       MOSUNNY   87  65  47 W10G16    29.89R
CHESTERFIELD*  FAIR      85  66  53 NW9       29.91R
PETERSBURG*    SUNNY     85  63  47 CALM      29.91S
HANOVER        SUNNY     86  64  47 W12       29.91R
TAPPAHANNOCK*  SUNNY     85  58  39 W9G16     29.89R
QUINTON*       FAIR      85  66  52 W5        29.89R
CHARLOTTSVILLE MOSUNNY   85  63  47 VRB6      29.90R
GORDONSVILLE*  SUNNY     83  64  52 W6        29.90R
ORANGE*        SUNNY     82  63  51 W10       29.89R
LOUISA*        MOSUNNY   88  66  48 SW5       29.89R
BUMPASS*       FAIR      83  68  59 SW12      29.89R
FARMVILLE*     SUNNY     84  60  43 W7        29.91S
CREWE*         FAIR      83  59  44 W3        29.92S
FORT PICKETT*  FAIR     N/A N/A N/A W12G17    29.93R
CHASE CITY*    FAIR      82  65  57 W7        29.95R
CLARKSVILLE*   FAIR      82  64  54 W7G18     29.94S
SOUTH HILL*    SUNNY     83  67  56 W7        29.99S
LAWRENCEVILLE* FAIR      83  66  56 W5        29.93R
EMPORIA*       SUNNY     82  64  54 W9        29.93S
$$

VAZ088>098-241700-
SOUTHEAST VIRGINIA

CITY           SKY/WX    TMP DP  RH WIND       PRES   REMARKS
NORFOLK        SUNNY     88  67  49 W9G21     29.89R
VIRGINIA BEACH MOSUNNY   87  70  56 W6        29.88R
NORFOLK NAVAL  MOSUNNY   87  67  51 W10       29.91R
WEST POINT*    SUNNY     86  64  47 SW14      29.90R
SALUDA*        FAIR      85  70  59 NW7       29.88R
NEWPORT NEWS   SUNNY     86  68  54 W9        29.89R
LANGLEY AFB    MOSUNNY   86  70  60 SW13      29.89R
FORT EUSTIS    SUNNY     88  69  54 W8        29.88R
WILLIAMSBURG*  SUNNY     90  70  51 W10G16    29.90R HX  95
HR EXEC AP*    FAIR      88  70  55 NW7       29.88R
FRANKLIN*      SUNNY     84  66  54 W5        29.92R
US460-WAKEFLD  SUNNY     85  67  54 SW6       29.91R
$$

VAZ020-022-025-037-045-241700-
WEST CENTRAL AND SOUTHWEST VIRGINIA

CITY           SKY/WX    TMP DP  RH WIND       PRES   REMARKS
STAUNTON*      PTSUNNY   78  55  45 N8        29.96R
WAYNESBORO*    MOSUNNY   78  62  59 W7        29.96R
HOT SPRINGS VA MOSUNNY   64  46  52 W12       30.07R HAZE
LYNCHBURG      MOSUNNY   81  65  58 SW9       29.96R
DANVILLE       SUNNY     84  68  58 SW8       29.95S
SOUTH BOSTON*  FAIR      83  65  55 W7        29.95R
MARTINSVILLE   CLOUDY    81  66  60 CALM      30.00R
ROANOKE        PTSUNNY   79  63  57 W9G17     29.98S
BLACKSBURG     PTSUNNY   76  65  69 W5        30.06R
DUBLIN*        CLOUDY    76  60  56 W9        30.04S
MARION*        CLOUDY    73  64  75 W7        30.08R
HILLSVILLE*    CLOUDY    75  60  60 NW13      30.05R
RICHLANDS*     CLOUDY    69  65  89 W6        30.07S
WISE*          PTSUNNY   73  63  68 CALM      30.07S
ABINGDON*      CLOUDY    74  69  86 SW7       30.05R
$$

MDZ021>025-VAZ099-100-241700-
SOUTHERN MARYLAND AND THE DELMARVA PENINSULA

CITY           SKY/WX    TMP DP  RH WIND       PRES   REMARKS
PATUXENT RIVER MOSUNNY   84  66  54 NW13      29.86R
BAY BRIDGE APT MOSUNNY   82  64  54 W10       29.85R
LEONARDTOWN    PTSUNNY   81  64  57 W8        29.88R
DOVER          MOSUNNY   83  71  66 W14G23    29.79R
GEORGETOWN     LGT RAIN  85  66  53 W15G26    29.83R
EASTON         SUNNY     84  64  51 NW13G20   29.89R
CAMBRIDGE      PTSUNNY   82  66  57 NW13G22   29.86R
SALISBURY      MOSUNNY   83  66  56 NW20G32   29.85R
OCEAN CITY     SUNNY     84  69  60 W17G25    29.83R
WALLOPS ISLAND PTSUNNY   82  68  62 W15       29.87R
ACCOMACK*      SUNNY     85  70  60 W10G20    29.88R
$$

NCZ012>017-030>032-241700-
NORTH CENTRAL AND EASTERN NORTH CAROLINA

CITY           SKY/WX    TMP DP  RH WIND       PRES   REMARKS
ROANOKE RAPIDS FAIR      82  68  61 W7        29.93S
RALEIGH        CLOUDY    87  72  60 SW10      29.95S
ELIZABETH CITY MOSUNNY   86  73  65 W12       29.92R
AHOSKIE*         N/A     84  69  60 CALM      29.93R
EDENTON*       SUNNY     88  73  60 W9        29.93R HX  95
CURRITUCK*     PTSUNNY   86  70  57 W9G17     29.92R
KILL DEVIL HLS SUNNY     86  71  61 W8G18     29.92R
MANTEO         PTSUNNY   85  72  63 W9G16     29.93R
CAPE HATTERAS  SUNNY     83  75  77 SW17G23   29.96R
TARBORO*       NOT AVBL
GOLDSBORO      MOSUNNY   88  77  71 W12       29.93S HX 100
WASHINGTON     SUNNY    N/A N/A N/A W10G16    29.94S
GREENVILLE     MOSUNNY   88  72  58 W7G16     29.96R
NEW BERN       PTSUNNY   89  76  65 W10       29.96R HX 100
WILMINGTON     PTSUNNY   90  73  57 SW13      29.97S HX  98
$$

VAZ048-241700-
ELSEWHERE

CITY           SKY/WX    TMP DP  RH WIND       PRES   REMARKS
HARRISBURG PA  MOSUNNY   81  60  48 W13       29.82R
BALTIMORE      MOSUNNY   84  64  50 NW10G21   29.84R
ANNAPOLIS      SUNNY     82  65  56 NW10G20   29.85R
ANDREWS AFB    MOSUNNY   82  63  51 NW14G23   29.86R
PHILADELPHIA   MOSUNNY   84  65  52 W16G28    29.77R
HENDERSON NC   CLOUDY    81  64  55 W7        29.95S
GREENSBORO     PTSUNNY   84  71  65 SW9       29.96S
ROCKY MOUNT    MOSUNNY   87  70  56 W8        29.94R
$$

VAZ100-241700-
MARINE

STATION/POSITION TIME  TEMP    WIND        PRES    WAVE   SWELL
                       AIR SEA DIR/SP/G            HT/PER HT/PER
                 (UTC) (F)     (DEG/KT/KT) (MB)    (FT/S) (FT/S)
BRANDYWINE LGT   1542   77     310/ 18/ 19 1009.4R
CAPE MAY NJ      1548   80 71  300/ 10/ 15 1009.0R
LEWES DE         1548   79 68  300/ 20/ 24 1009.1R
15NM E FENWICK I 1450   69 66  250/ 10/ 12 1009.4    6/ 8   5/ 8
WACHAPREAGUE VA  1548   85 81  260/  5/ 12 1011.5R
THOMAS POINT MD  1600   81 77  300/ 17/ 20   N/A
GOOSES REEF MD   1550   81     310/ 17/ 21 1012.0R
COVE POINT MD    1548   81     320/ 11/ 20 1011.8R
SOLOMONS ISLAND  1548   83 76  290/  7/ 13   N/A
BISHOPS HEAD MD  1548   81 81  290/ 19/ 20 1011.7R
PINEY POINT MD   1548          320/ 12/ 14   N/A
POTOMAC MD       1550   81     320/ 14/ 17 1010.6R
CAMBRIDGE MD     1548   83 81              1011.8R
LEWISETTA VA     1548   83 74  300/ 12/ 18 1011.3R
RAPPAHANNOCK LGT 1548          280/ 12/ 14 1012.4R
STINGRAY PT      1550   81     320/ 10/ 12 1012.3R
YORK RVR RNG VA  1548   83     270/ 10/ 12 1012.3R
YORKTOWN VA      1548   83 77  250/  8/ 13 1011.7R
JAMESTOWN VA     1550   83                   N/A
DOMINION TERM VA 1548   82     310/  8/ 10 1012.4R
KIPTOPEKE VA     1548      76  170/  2/  4   N/A
CHES BAY BRIDGE  1548   80 70  280/ 11/ 12 1012.2R
CAPE HENRY VA    1548   84     290/ 10/ 13   N/A
WILLOUBY STN VA  1548   82     280/ 11/ 14 1012.3R
S CRANEY ISL VA  1548   86     290/  7/ 11 1012.1R
CAPE HENRY BUOY  1500      70                N/A     4/ 6
1ST LANDING BUOY 1550   80                 1012.1R
CAPE CHARLES BUO 1551      70                N/A     3/ 6
64NM E OF VA BCH 1550   74 71  270/  8/ 10 1013.4R   7/ 7   7/ 7
DUCK PIER NC     1548   83 60  250/ 16/ 20 1012.7R
44100 DUCK FRF   1505      69                N/A     4/ 5
OREGON INLET NC  1542   85 80  250/ 11/ 15 1013.4R
HATTERAS NC      1548   81 78  230/ 13/ 19 1014.3R
DIAMOND SHLS NC  1550   80 80  240/ 21/ 29 1014.3R   8/ 7   2/12
CAPE LOOKOUT NC  1500   82     230/ 14/ 20 1014.4R
$$



USA.gov is the U.S. government's official web portal to all federal, state and local government web resources and services.